Change the Weather History Date:

Monday, September 9, 2013

  Actual Average Record
Temperature  
Mean Temperature 66 °F -  
Max Temperature 77 °F 70 °F 90 °F (1963)
Min Temperature 55 °F 48 °F 37 °F (1959)
Cooling Degree Days 1    
Growing Degree Days 16 (Base 50)    
Moisture  
Dew Point 59 °F    
Average Humidity 94    
Maximum Humidity 100    
Minimum Humidity 57    
Precipitation  
Precipitation 0.00 in - - ()
Sea Level Pressure  
Sea Level Pressure 30.05 in    
Wind  
Wind Speed 2 mph (WNW)    
Max Wind Speed 7 mph    
Max Gust Speed -    
Visibility 4 miles    
Events Fog    
Averages and records for this station are not official NWS values.
T = Trace of Precipitation, MM = Missing Value Source: NWS Daily Summary

Daily Weather History Graph

Daily Weather History Graph

Search for Another Location

Airport or City:

Trip Planner

Search our weather history database for the weather conditions in past years. The results will help you decide how hot, cold, wet, or windy it might be!

Date:

Astronomy

Sep. 09, 2013 Rise Set
Actual Time 6:40 AM PDT 7:33 PM PDT
Civil Twilight 6:09 AM PDT 8:04 PM PDT
Nautical Twilight 5:31 AM PDT 8:41 PM PDT
Astronomical Twilight 4:52 AM PDT 9:19 PM PDT
Moon 11:28 AM PDT (9/9) 9:31 PM PDT (9/9)
Length of Visible Light 13h 55m
Length of Day
12h 53m
Waxing Crescent, 20% of the Moon is Illuminated
Sep 9
Waxing Crescent
Sep 12
First Quarter
Sep 19
Full
Sep 26
Last Quarter
Oct 4
New

Hourly Weather History & Observations

Time (PDT) Temp. Dew Point Humidity Pressure Visibility Wind Dir Wind Speed Gust Speed Precip Events Conditions
12:58 AM 59.2 °F 58.5 °F 97% 30.06 in 10.0 mi SSE 1.2 mph - N/A   Clear
1:43 AM 57.2 °F 57.2 °F 100% 30.05 in 1.5 mi South 2.3 mph - N/A   Clear
1:48 AM 57.2 °F 57.2 °F 100% 30.05 in 1.2 mi SSW 1.2 mph - N/A   Clear
1:53 AM 57.2 °F 57.2 °F 100% 30.05 in 1.2 mi SSE 2.3 mph - N/A   Clear
1:58 AM 57.0 °F 56.7 °F 99% 30.06 in 1.5 mi Calm Calm - N/A   Clear
2:03 AM 55.4 °F 55.4 °F 100% 30.05 in 3.0 mi SW 2.3 mph - N/A   Clear
2:08 AM 55.4 °F 55.4 °F 100% 30.05 in 2.5 mi SSW 2.3 mph - N/A   Clear
2:13 AM 57.2 °F 55.4 °F 94% 30.05 in 1.2 mi SSW 3.5 mph - N/A   Clear
2:18 AM 57.2 °F 55.4 °F 94% 30.05 in 0.8 mi South 3.5 mph - N/A   Clear
2:23 AM 55.4 °F 55.4 °F 100% 30.05 in 0.8 mi SSE 2.3 mph - N/A   Clear
2:28 AM 55.4 °F 55.4 °F 100% 30.05 in 1.8 mi SE 2.3 mph - N/A   Clear
2:33 AM 55.4 °F 55.4 °F 100% 30.05 in 8.0 mi SSE 2.3 mph - N/A   Clear
2:53 AM 57.2 °F 57.2 °F 100% 30.05 in 10.0 mi SW 2.3 mph - N/A   Partly Cloudy
2:58 AM 57.0 °F 56.8 °F 99% 30.06 in 10.0 mi SSW 2.3 mph - N/A   Scattered Clouds
3:03 AM 57.2 °F 57.2 °F 100% 30.05 in 10.0 mi SSW 1.2 mph - N/A   Mostly Cloudy
3:18 AM 55.4 °F 55.4 °F 100% 30.05 in 1.2 mi South 1.2 mph - N/A   Overcast
3:23 AM 55.4 °F 55.4 °F 100% 30.05 in 0.8 mi SW 1.2 mph - N/A   Overcast
3:33 AM 57.2 °F 57.2 °F 100% 30.05 in 0.8 mi Variable 1.2 mph - N/A   Overcast
3:38 AM 57.2 °F 57.2 °F 100% 30.05 in 1.5 mi Variable 2.3 mph - N/A   Overcast
3:43 AM 59.0 °F 57.2 °F 94% 30.05 in 5.0 mi South 1.2 mph - N/A   Overcast
3:58 AM 60.1 °F 59.7 °F 99% 30.06 in 10.0 mi Calm Calm - N/A   Overcast
4:49 AM 60.8 °F 59.0 °F 94% 30.05 in 2.5 mi West 2.3 mph - N/A   Overcast
5:00 AM 60.8 °F 59.0 °F 94% 30.05 in 3.0 mi NW 3.5 mph - N/A   Overcast
5:05 AM 60.8 °F 59.0 °F 94% 30.06 in 2.5 mi NW 3.5 mph - N/A   Overcast
5:15 AM 59.0 °F 59.0 °F 100% 30.06 in 2.0 mi West 2.3 mph - N/A   Overcast
5:25 AM 59.0 °F 59.0 °F 100% 30.05 in 1.8 mi NNW 2.3 mph - N/A   Overcast
5:30 AM 59.0 °F 59.0 °F 100% 30.05 in 1.5 mi WNW 2.3 mph - N/A   Overcast
5:35 AM 59.0 °F 59.0 °F 100% 30.05 in 2.0 mi West 2.3 mph - N/A   Overcast
5:40 AM 59.0 °F 59.0 °F 100% 30.05 in 3.0 mi WNW 2.3 mph - N/A   Overcast
5:55 AM 59.0 °F 59.0 °F 100% 30.05 in 2.5 mi WNW 2.3 mph - N/A   Overcast
5:58 AM 59.2 °F 59.0 °F 99% 30.06 in 2.0 mi North 1.2 mph - N/A   Overcast
6:03 AM 59.0 °F 59.0 °F 100% 30.06 in 2.0 mi Calm Calm - N/A   Overcast
6:08 AM 59.0 °F 59.0 °F 100% 30.06 in 1.8 mi Calm Calm - N/A   Overcast
6:13 AM 59.0 °F 59.0 °F 100% 30.06 in 2.0 mi Calm Calm - N/A   Overcast
6:18 AM 59.0 °F 59.0 °F 100% 30.06 in 3.0 mi North 2.3 mph - N/A   Overcast
6:23 AM 59.0 °F 59.0 °F 100% 30.06 in 4.0 mi NNW 2.3 mph - N/A   Overcast
6:28 AM 59.0 °F 59.0 °F 100% 30.06 in 2.5 mi North 2.3 mph - N/A   Overcast
6:33 AM 59.0 °F 59.0 °F 100% 30.06 in 2.0 mi NNW 2.3 mph - N/A   Overcast
6:38 AM 59.0 °F 59.0 °F 100% 30.06 in 1.5 mi NNW 1.2 mph - N/A   Overcast
6:43 AM 59.0 °F 59.0 °F 100% 30.06 in 1.0 mi NNW 2.3 mph - N/A   Overcast
6:48 AM 59.0 °F 59.0 °F 100% 30.06 in 0.8 mi North 3.5 mph - N/A   Overcast
6:53 AM 59.0 °F 59.0 °F 100% 30.06 in 0.8 mi North 3.5 mph - N/A   Overcast
6:58 AM 59.0 °F 58.6 °F 99% 30.07 in 0.8 mi NW 2.3 mph - N/A   Overcast
7:03 AM 59.0 °F 59.0 °F 100% 30.06 in 1.0 mi NW 2.3 mph - N/A   Overcast
7:13 AM 59.0 °F 59.0 °F 100% 30.06 in 0.8 mi WNW 2.3 mph - N/A   Overcast
7:18 AM 59.0 °F 59.0 °F 100% 30.06 in 0.8 mi NNW 1.2 mph - N/A   Overcast
7:23 AM 59.0 °F 59.0 °F 100% 30.07 in 0.5 mi NW 2.3 mph - N/A Fog Fog
7:38 AM 59.0 °F 59.0 °F 100% 30.07 in 0.8 mi Calm Calm - N/A   Overcast
7:43 AM 59.0 °F 59.0 °F 100% 30.07 in 1.0 mi NW 1.2 mph - N/A   Overcast
7:48 AM 59.0 °F 59.0 °F 100% 30.07 in 1.2 mi Variable 2.3 mph - N/A   Overcast
7:53 AM 59.0 °F 59.0 °F 100% 30.07 in 1.8 mi Calm Calm - N/A   Overcast
7:58 AM 59.2 °F 58.8 °F 99% 30.08 in 2.0 mi Variable 1.2 mph - N/A   Overcast
8:03 AM 59.0 °F 59.0 °F 100% 30.07 in 1.2 mi NNW 2.3 mph - N/A   Overcast
8:08 AM 59.0 °F 59.0 °F 100% 30.07 in 1.0 mi NW 2.3 mph - N/A   Overcast
8:13 AM 59.0 °F 59.0 °F 100% 30.07 in 1.0 mi NNW 2.3 mph - N/A   Overcast
8:18 AM 59.0 °F 59.0 °F 100% 30.08 in 1.2 mi NW 3.5 mph - N/A   Overcast
8:23 AM 59.0 °F 59.0 °F 100% 30.07 in 2.0 mi West 3.5 mph - N/A   Overcast
8:28 AM 59.0 °F 59.0 °F 100% 30.07 in 3.0 mi West 2.3 mph - N/A   Overcast
8:58 AM 59.5 °F 59.2 °F 99% 30.08 in 5.0 mi Calm Calm - N/A   Overcast
9:58 AM 60.1 °F 59.7 °F 99% 30.09 in 4.0 mi NNW 2.3 mph - N/A   Overcast
10:58 AM 61.5 °F 60.4 °F 96% 30.09 in 10.0 mi North 1.2 mph - N/A   Overcast
11:23 AM 62.6 °F 60.8 °F 94% 30.08 in 10.0 mi Calm Calm - N/A   Overcast
11:38 AM 62.6 °F 60.8 °F 94% 30.08 in 10.0 mi West 3.5 mph - N/A   Overcast
11:53 AM 62.6 °F 60.8 °F 94% 30.08 in 10.0 mi Calm Calm - N/A   Overcast
11:58 AM 63.5 °F 60.1 °F 89% 30.09 in 10.0 mi Variable 1.2 mph - N/A   Overcast
12:08 PM 62.6 °F 60.8 °F 94% 30.08 in 10.0 mi Calm Calm - N/A   Overcast
12:33 PM 64.4 °F 60.8 °F 88% 30.07 in 10.0 mi Variable 1.2 mph - N/A   Overcast
12:58 PM 66.6 °F 60.4 °F 81% 30.07 in 10.0 mi Variable 2.3 mph - N/A   Mostly Cloudy
1:23 PM 68.0 °F 60.8 °F 78% 30.05 in 10.0 mi Variable 4.6 mph - N/A   Scattered Clouds
1:58 PM 70.5 °F 60.8 °F 71% 30.06 in 10.0 mi North 4.6 mph - N/A   Partly Cloudy
2:20 PM 71.6 °F 60.8 °F 69% 30.04 in 10.0 mi Variable 3.5 mph - N/A   Clear
2:58 PM 74.8 °F 61.3 °F 63% 30.04 in 10.0 mi Variable 2.3 mph - N/A   Clear
3:58 PM 75.9 °F 60.8 °F 59% 30.02 in 10.0 mi North 3.5 mph - N/A   Clear
4:58 PM 77.0 °F 60.8 °F 57% 30.01 in 10.0 mi ENE 6.9 mph - N/A   Clear
5:58 PM 76.1 °F 60.6 °F 59% 30.01 in 10.0 mi Variable 4.6 mph - N/A   Clear
6:58 PM 73.8 °F 59.4 °F 61% 30.00 in 10.0 mi NNE 4.6 mph - N/A   Clear
7:58 PM 68.9 °F 59.0 °F 71% 30.00 in 10.0 mi NE 3.5 mph - N/A   Clear
8:58 PM 66.7 °F 57.9 °F 73% 30.00 in 10.0 mi NNE 5.8 mph - N/A   Clear
9:58 PM 63.5 °F 57.4 °F 80% 30.00 in 10.0 mi NNE 3.5 mph - N/A   Clear
10:58 PM 59.7 °F 56.8 °F 90% 30.00 in 10.0 mi Calm Calm - N/A   Clear
11:58 PM 59.0 °F 57.6 °F 95% 30.00 in 10.0 mi Calm Calm - N/A   Clear